When you browse on this site, cookies collect data to enhance your experience and personalize the content and advertising you see.
Visit our Privacy Policy to learn more. By continuing to use the site, you agree to this use of cookies and data.
  • In Lithuania
  • List of Countries
  • For 7 days
  • Water Temperature
  • Satellite Maps
  • Weather Map
  • Weather Widgets
  • user-avatar
    Login

    Hourly Weather Prince George

    Today, 20 May, Monday

    Time Temperature Precipitation Wind Pressure Humidity
    00:00 +9°C° 0 mm 0 mps 696 mmHg 92%
    01:00 +8°C° 0 mm 0 mps 696 mmHg 93%
    02:00 +8°C° 0 mm 0 mps 695 mmHg 93%
    03:00 +7°C° 0 mm 0 mps 695 mmHg 93%
    04:00 +7°C° 0 mm 0 mps 695 mmHg 94%
    05:00 +9°C° 0 mm 0 mps 695 mmHg 89%
    06:00 +11°C° 0 mm 0 mps 695 mmHg 83%
    07:00 +13°C° 0 mm 0 mps 695 mmHg 77%
    08:00 +16°C° 0.3 mm 1 mps 694 mmHg 69%
    09:00 +19°C° 0.3 mm 1 mps 694 mmHg 60%
    10:00 +21°C° 0.3 mm 1 mps 694 mmHg 52%
    11:00 +21°C° 0.3 mm 1 mps 694 mmHg 49%
    12:00 +22°C° 0.3 mm 1 mps 693 mmHg 46%
    13:00 +22°C° 0.3 mm 1 mps 693 mmHg 42%
    14:00 +22°C° 0.2 mm 1 mps 693 mmHg 41%
    15:00 +22°C° 0.2 mm 1 mps 693 mmHg 40%
    16:00 +23°C° 0.2 mm 1 mps 692 mmHg 39%
    17:00 +21°C° 0 mm 1 mps 692 mmHg 45%
    18:00 +20°C° 0 mm 1 mps 692 mmHg 51%
    19:00 +18°C° 0 mm 1 mps 692 mmHg 57%
    20:00 +15°C° 0.3 mm 1 mps 692 mmHg 63%
    21:00 +13°C° 0.3 mm 1 mps 692 mmHg 70%
    22:00 +11°C° 0.3 mm 1 mps 692 mmHg 76%
    23:00 +11°C° 0.1 mm 1 mps 692 mmHg 77%

    Tomorrow, 21 May, Tuesday

    Time Temperature Precipitation Wind Pressure Humidity
    00:00 +10°C° 0.1 mm 1 mps 693 mmHg 78%
    01:00 +9°C° 0.1 mm 0 mps 693 mmHg 79%
    02:00 +8°C° 0 mm 0 mps 694 mmHg 81%
    03:00 +8°C° 0 mm 0 mps 694 mmHg 83%
    04:00 +7°C° 0 mm 0 mps 695 mmHg 86%
    05:00 +10°C° 0 mm 1 mps 695 mmHg 81%
    06:00 +12°C° 0 mm 1 mps 695 mmHg 76%
    07:00 +13°C° 0 mm 1 mps 696 mmHg 72%
    08:00 +15°C° 0 mm 1 mps 696 mmHg 64%
    09:00 +17°C° 0 mm 2 mps 697 mmHg 57%
    10:00 +18°C° 0 mm 2 mps 697 mmHg 50%
    11:00 +19°C° 0.1 mm 2 mps 698 mmHg 46%
    12:00 +20°C° 0.1 mm 2 mps 698 mmHg 42%
    13:00 +23°C° 0.1 mm 1 mps 698 mmHg 39%
    14:00 +23°C° 0 mm 2 mps 699 mmHg 36%
    15:00 +23°C° 0 mm 2 mps 699 mmHg 34%
    16:00 +23°C° 0 mm 2 mps 699 mmHg 31%
    17:00 +20°C° 0 mm 2 mps 699 mmHg 38%
    18:00 +19°C° 0 mm 2 mps 699 mmHg 45%
    19:00 +18°C° 0 mm 2 mps 700 mmHg 53%
    20:00 +16°C° 0 mm 1 mps 700 mmHg 58%
    21:00 +13°C° 0 mm 1 mps 700 mmHg 64%
    22:00 +11°C° 0 mm 1 mps 701 mmHg 70%
    23:00 +11°C° 0 mm 1 mps 701 mmHg 73%

    Day after tomorrow, 22 May, Wednesday

    Time Temperature Precipitation Wind Pressure Humidity
    00:00 +10°C° 0 mm 1 mps 701 mmHg 77%
    01:00 +9°C° 0 mm 1 mps 701 mmHg 80%
    02:00 +8°C° 0 mm 1 mps 702 mmHg 83%
    03:00 +8°C° 0 mm 1 mps 702 mmHg 87%
    04:00 +7°C° 0 mm 1 mps 703 mmHg 90%
    05:00 +9°C° 0 mm 1 mps 703 mmHg 82%
    06:00 +11°C° 0 mm 1 mps 703 mmHg 74%
    07:00 +13°C° 0 mm 1 mps 703 mmHg 65%
    08:00 +15°C° 0 mm 1 mps 703 mmHg 59%
    09:00 +18°C° 0 mm 1 mps 704 mmHg 53%
    10:00 +20°C° 0 mm 1 mps 704 mmHg 47%
    11:00 +21°C° 0 mm 1 mps 704 mmHg 43%
    12:00 +22°C° 0 mm 1 mps 704 mmHg 39%
    13:00 +23°C° 0 mm 2 mps 703 mmHg 36%
    14:00 +23°C° 0 mm 2 mps 703 mmHg 36%
    15:00 +21°C° 0 mm 2 mps 703 mmHg 37%
    16:00 +21°C° 0 mm 2 mps 703 mmHg 38%
    17:00 +20°C° 0 mm 2 mps 703 mmHg 43%
    18:00 +19°C° 0 mm 2 mps 703 mmHg 49%
    19:00 +19°C° 0 mm 1 mps 703 mmHg 55%
    20:00 +16°C° 0 mm 1 mps 703 mmHg 60%
    21:00 +14°C° 0 mm 1 mps 703 mmHg 65%
    22:00 +12°C° 0 mm 1 mps 703 mmHg 71%
    23:00 +11°C° 0 mm 1 mps 703 mmHg 74%

    23 May, Thursday

    Time Temperature Precipitation Wind Pressure Humidity
    00:00 +10°C° 0 mm 1 mps 703 mmHg 77%
    01:00 +10°C° 0 mm 1 mps 703 mmHg 79%
    02:00 +9°C° 0 mm 1 mps 703 mmHg 82%
    03:00 +9°C° 0 mm 1 mps 703 mmHg 84%
    04:00 +7°C° 0 mm 0 mps 703 mmHg 87%
    05:00 +10°C° 0 mm 0 mps 703 mmHg 79%
    06:00 +12°C° 0 mm 0 mps 703 mmHg 71%
    07:00 +14°C° 0 mm 0 mps 703 mmHg 63%
    08:00 +16°C° 0 mm 0 mps 703 mmHg 56%
    09:00 +20°C° 0 mm 1 mps 703 mmHg 49%
    10:00 +22°C° 0 mm 1 mps 703 mmHg 42%
    11:00 +23°C° 0 mm 1 mps 702 mmHg 38%
    12:00 +24°C° 0 mm 1 mps 702 mmHg 35%
    13:00 +25°C° 0 mm 1 mps 701 mmHg 31%
    14:00 +25°C° 0 mm 1 mps 700 mmHg 31%
    15:00 +25°C° 0 mm 1 mps 700 mmHg 31%
    16:00 +25°C° 0 mm 1 mps 699 mmHg 31%
    17:00 +23°C° 0 mm 1 mps 699 mmHg 38%
    18:00 +19°C° 0 mm 0 mps 698 mmHg 45%
    19:00 +18°C° 0 mm 0 mps 697 mmHg 52%
    20:00 +16°C° 0 mm 0 mps 697 mmHg 54%
    21:00 +16°C° 0 mm 1 mps 697 mmHg 56%
    22:00 +14°C° 0 mm 1 mps 697 mmHg 57%
    23:00 +14°C° 0.2 mm 1 mps 696 mmHg 65%

    24 May, Friday

    Time Temperature Precipitation Wind Pressure Humidity
    00:00 +13°C° 0.2 mm 1 mps 696 mmHg 73%
    01:00 +12°C° 0.2 mm 1 mps 696 mmHg 81%
    02:00 +12°C° 0 mm 1 mps 696 mmHg 85%
    03:00 +11°C° 0 mm 1 mps 695 mmHg 89%
    04:00 +10°C° 0 mm 1 mps 695 mmHg 94%
    05:00 +12°C° 0 mm 1 mps 695 mmHg 87%
    06:00 +13°C° 0 mm 1 mps 696 mmHg 80%
    07:00 +15°C° 0 mm 1 mps 696 mmHg 73%
    08:00 +16°C° 0 mm 1 mps 696 mmHg 66%
    09:00 +17°C° 0 mm 2 mps 696 mmHg 59%
    10:00 +18°C° 0 mm 2 mps 696 mmHg 52%
    11:00 +19°C° 0 mm 2 mps 696 mmHg 48%
    12:00 +20°C° 0 mm 3 mps 696 mmHg 45%
    13:00 +21°C° 0 mm 3 mps 696 mmHg 41%
    14:00 +21°C° 0 mm 3 mps 696 mmHg 42%
    15:00 +21°C° 0 mm 3 mps 696 mmHg 42%
    16:00 +21°C° 0 mm 3 mps 696 mmHg 42%
    17:00 +20°C° 0 mm 3 mps 696 mmHg 48%
    18:00 +18°C° 0 mm 3 mps 696 mmHg 54%
    19:00 +17°C° 0 mm 2 mps 696 mmHg 61%
    20:00 +16°C° 0 mm 2 mps 696 mmHg 68%
    21:00 +14°C° 0 mm 2 mps 696 mmHg 76%
    22:00 +12°C° 0 mm 2 mps 696 mmHg 83%
    23:00 +11°C° 0.1 mm 3 mps 697 mmHg 83%

    25 May, Saturday

    Time Temperature Precipitation Wind Pressure Humidity
    00:00 +12°C° 0.1 mm 3 mps 697 mmHg 82%
    01:00 +12°C° 0.1 mm 4 mps 698 mmHg 81%
    02:00 +10°C° 0 mm 5 mps 699 mmHg 78%
    03:00 +10°C° 0 mm 5 mps 699 mmHg 75%
    04:00 +9°C° 0 mm 5 mps 700 mmHg 72%
    05:00 +9°C° 0 mm 6 mps 701 mmHg 64%
    06:00 +9°C° 0 mm 6 mps 701 mmHg 55%
    07:00 +9°C° 0 mm 6 mps 702 mmHg 47%
    08:00 +11°C° 0 mm 6 mps 703 mmHg 40%
    09:00 +13°C° 0 mm 6 mps 703 mmHg 34%
    10:00 +15°C° 0 mm 5 mps 703 mmHg 27%
    11:00 +15°C° 0 mm 5 mps 703 mmHg 25%
    12:00 +16°C° 0 mm 5 mps 703 mmHg 23%
    13:00 +17°C° 0 mm 5 mps 703 mmHg 21%
    14:00 +17°C° 0 mm 5 mps 703 mmHg 22%
    15:00 +17°C° 0 mm 5 mps 703 mmHg 22%
    16:00 +17°C° 0 mm 5 mps 703 mmHg 22%
    17:00 +16°C° 0 mm 5 mps 703 mmHg 27%
    18:00 +15°C° 0 mm 4 mps 703 mmHg 32%
    19:00 +13°C° 0 mm 3 mps 703 mmHg 36%
    20:00 +12°C° 0 mm 3 mps 704 mmHg 41%
    21:00 +10°C° 0 mm 3 mps 704 mmHg 46%
    22:00 +8°C° 0 mm 3 mps 705 mmHg 52%
    23:00 +7°C° 0 mm 3 mps 705 mmHg 55%
    Show more